SPIRALE B

Last updated on Wed Jun 28 2023 00:03:42 GMT+0000 (Coordinated Universal Time)

1 33752U 09008D 23177.88832349 .00017522 00000+0 21523-2 0 9993 2 33752 1.9968 280.9589 6842589 187.5382 151.6761 2.86831423135768
UTC large
Height (km)
Speed (km/s)
/
Latitude / Longitude
Inclination (degrees)
Orbital Period (minutes)
Azimuth
Elevation
Range (km)
Doppler Factor

Next 0 passes for location: London (51.5072 / 0.1276)

Sorry there are no passes over London.